RADUGA 29 1 22557U 93013A 21061.77225104 -.00000260 00000-0 00000-0 0 9994 2 22557 14.8208 0.3406 0007281 66.4559 105.6860 1.00167236102300 SL-12 R/B(2) 1 22624U 93013D 21062.30817459 -.00000055 00000-0 00000-0 0 9991 2 22624 15.5777 3.0326 0019356 67.9997 110.5050 0.98013689 99975